Tracking 30970 objects as of 3-Jul-2025
HD Live streaming from Space Station
objects crossing your sky now

GALAXY 25 (TELSTAR 5)

Track GALAXY 25 (TELSTAR 5) now!
GALAXY 25 (TELSTAR 5) is classified as:


NORAD ID: 24812
Int'l Code: 1997-026A
Perigee: 36,094.5 km
Apogee: 36,160.5 km
Inclination: 6.5 °
Period: 1,453.2 minutes
Semi major axis: 42498 km
RCS: 43.2964 m2 (large)
Launch date: May 24, 1997
Source: United States (US)
Launch site: TYURATAM MISSILE AND SPACE COMPLEX (TTMTR)

24 C-band, 28 Ku-band; U.S., southern Canada, Mexico, Caribbean.
Your satellite tracking list
Your tracking list is empty




NASA's NSSDC Master Catalog

Two Line Element Set (TLE):
1 24812U 97026A   25183.44489235 -.00000238  00000-0  00000-0 0  9993
2 24812   6.5091  71.8755 0007765  24.6778 308.2434  0.99092811102750
Source of the keplerian elements: AFSPC